[[{"header":{"parameterUnit":"m.s-1","parameterCategory":1,"la1":30.2991,"la2":30.254,"lo1":-89.0895,"lo2":-89.0444,"dy":0.0017,"dx":0.0017,"nx":28,"ny":28,"refTime":"2024-03-23T21:00:00:Z","depth":0,"parameterNumber":2,"parameterNumberName":"U-component_of_WINDS"},"data":[0,0,0,0,0,0,0,0,0,0,0,0,0,0,0,0,0,0,0,0,0,0,0,0,0,0,0,0,0,0,0,0,0,0,0,0,0,0,0,0,0,0,0,0,0,0,0,0,0,0,0,0,0,0,0,0,0,0,-7.4839,-7.4843,0,-7.5177,-7.5181,-7.5185,-7.5292,-7.5291,-7.5289,-7.5287,-7.563,-7.564,-7.5651,0,0,0,0,0,0,0,0,0,0,0,0,0,-7.4283,-7.4292,-7.4839,-7.4843,-7.4847,-7.5177,-7.5181,-7.5186,-7.5292,-7.529,-7.5289,-7.5287,-7.5627,-7.5639,-7.5652,0,0,0,0,0,0,0,0,0,0,0,0,0,-7.4563,-7.4296,-7.4838,-7.494,-7.4953,-7.5176,-7.5181,-7.5187,-7.5293,-7.529,-7.5288,-7.5286,-7.5622,-7.5638,-7.5653,-7.5798,0,0,-7.5702,-7.5709,0,0,0,0,0,0,0,0,-7.4547,-7.4583,-7.4921,-7.4934,-7.4948,-7.519,-7.5111,-7.5392,-7.5293,-7.5164,-7.5287,-7.5285,-7.5485,-7.5512,-7.5581,-7.5814,-7.5829,-7.5703,-7.5713,-7.572,-7.5724,0,0,0,0,0,0,0,-7.4527,-7.4569,-7.4973,-7.4926,-7.4942,-7.4968,-7.5006,-7.5165,-7.5333,-7.5175,-7.5183,-7.5222,-7.5492,-7.5565,-7.559,-7.5834,-7.5703,-7.5717,-7.5727,-7.5733,-7.6203,-7.6206,0,0,0,0,0,0,-7.4491,-7.4552,-7.4962,-7.4983,-7.4738,-7.498,-7.5022,-7.5115,-7.5332,-7.5363,-7.5224,-7.5226,-7.5539,-7.5571,-7.5602,-7.5785,-7.572,-7.5734,-7.5744,-7.62,-7.6204,-7.6207,0,0,0,0,0,0,-7.4479,-7.4526,-7.4948,-7.477,-7.4826,-7.4992,-7.5096,-7.5123,-7.5196,-7.5369,-7.5399,-7.5267,-7.5539,-7.558,-7.5749,-7.5798,-7.5742,-7.5756,-7.6197,-7.6201,-7.6205,-7.6152,0,0,0,0,0,0,-7.4462,-7.4521,-7.4578,-7.4771,-7.4835,-7.509,-7.5099,-7.5131,-7.5223,-7.5229,-7.5418,-7.5447,-7.554,-7.5725,-7.5765,-7.5819,-7.5768,-7.6193,-7.6199,-7.6204,-7.615,-7.6154,-7.6158,0,0,0,0,0,-7.4442,-7.4549,-7.4581,-7.463,-7.491,-7.5092,-7.5129,-7.5235,-7.5227,-7.5285,-7.5397,-7.5441,-7.5787,-7.5741,-7.5787,-7.5847,-7.619,-7.6197,-7.6204,-7.6148,-7.6154,-7.6158,0,0,0,0,0,0,-7.4357,-7.4576,-7.4613,-7.4786,-7.492,-7.511,-7.5187,-7.5237,-7.5375,-7.5374,-7.5499,-7.5541,-7.57,-7.5792,-7.5736,-7.5999,-7.5991,-7.6007,-7.5933,-7.5939,-7.5943,-7.5916,-7.5782,0,0,0,0,0,-7.4358,-7.4489,-7.4674,-7.4808,-7.4874,-7.5019,-7.5102,-7.5173,-7.5316,-7.5372,-7.5496,-7.5632,-7.5772,-7.5861,-7.5999,-7.6165,-7.6207,-7.6229,-7.6233,-7.6235,-7.6247,-7.6341,-7.6352,-7.6229,-7.6229,-7.6229,0,0,-7.4362,-7.4498,-7.4573,-7.4795,-7.4907,-7.5038,-7.5065,-7.5204,-7.5302,-7.5393,-7.556,-7.5656,-7.5816,-7.5984,-7.6064,-7.6065,-7.6291,-7.6244,-7.6244,-7.6255,-7.6349,-7.636,-7.6371,-7.6234,-7.6233,-7.6232,0,0,-7.4436,-7.4553,-7.4678,-7.479,-7.496,-7.5056,-7.5086,-7.527,-7.5337,-7.5508,-7.5578,-7.5697,-7.5935,-7.6047,-7.6134,-7.6253,-7.6298,-7.6295,-7.6313,-7.6403,-7.6413,-7.6422,-7.6463,-7.6476,-7.6306,-7.6306,-7.6306,0,-7.4419,-7.4622,-7.4735,-7.4871,-7.4966,-7.5056,-7.5183,-7.5286,-7.5491,-7.5554,-7.5553,-7.5854,-7.5968,-7.6163,-7.6192,-7.6261,-7.6298,-7.6272,-7.6403,-7.6413,-7.6423,-7.6464,-7.6479,-7.6304,-7.6305,-7.6305,-7.6305,0,-7.4591,-7.4731,-7.4811,-7.5009,-7.5113,-7.5243,-7.5376,-7.5468,-7.553,-7.5626,-7.5798,-7.5939,-7.6107,-7.616,-7.6221,-7.6364,-7.6359,-7.6378,-7.6372,-7.6431,-7.6471,-7.6488,-7.6302,-7.6303,-7.6303,-7.6304,0,0,-7.4618,-7.4879,-7.4906,-7.4997,-7.5192,-7.5302,-7.5436,-7.5602,-7.5678,-7.5818,-7.5932,-7.6133,-7.6153,-7.6252,-7.6327,-7.6407,-7.649,-7.6418,-7.6423,-7.6424,-7.6655,-7.6637,-7.6653,-7.6523,-7.6527,-7.6529,-7.6641,0,-7.4716,-7.496,-7.5067,-7.5263,-7.5392,-7.5481,-7.5599,-7.573,-7.5824,-7.5947,-7.6051,-7.619,-7.6207,-7.6268,-7.6351,-7.6462,-7.6538,-7.6456,-7.6629,-7.6634,-7.6584,-7.6675,-7.6656,-7.6754,-7.6658,-7.666,-7.6662,0,-7.4862,-7.5003,-7.5211,-7.5391,-7.545,-7.5553,-7.5714,-7.5831,-7.5983,-7.6045,-7.6157,-7.6229,-7.6373,-7.636,-7.6559,-7.6501,-7.6579,-7.6645,-7.6651,-7.6669,-7.665,-7.6693,-7.6789,-7.6802,-7.6688,-7.6686,-7.6684,0,-7.4858,-7.51,-7.5256,-7.5332,-7.5546,-7.5616,-7.5709,-7.5859,-7.5952,-7.6092,-7.6154,-7.6309,-7.6393,-7.6512,-7.6624,-7.6604,-7.6812,-7.6808,-7.6867,-7.6864,-7.6904,-7.69,-7.7011,-7.6958,-7.6958,-7.6957,-7.6957,0,-7.4954,-7.5077,-7.5258,-7.5353,-7.5494,-7.5617,-7.5753,-7.5851,-7.5984,-7.61,-7.6187,-7.6293,-7.6436,-7.6561,-7.6649,-7.68,-7.6838,-7.6892,-7.6914,-7.6883,-7.6876,-7.6934,-7.6929,-7.6962,-7.6961,-7.696,-7.6959,0,-7.4972,-7.5098,-7.5274,-7.5463,-7.5514,-7.5609,-7.5771,-7.5867,-7.5966,-7.6112,-7.6153,-7.6308,-7.646,-7.6584,-7.6782,-7.6842,-7.6999,-7.7025,-7.6947,-7.6958,-7.7009,-7.7002,-7.716,-7.7187,-7.7117,-7.7117,-7.7118,0,-7.5024,-7.5121,-7.5322,-7.5406,-7.5498,-7.5633,-7.5729,-7.5854,-7.595,-7.6131,-7.6204,-7.6363,-7.6495,-7.6733,-7.6863,-7.7015,-7.7044,-7.7089,-7.7067,-7.7034,-7.7043,-7.7035,-7.7044,-7.709,-7.709,-7.709,-7.709,0,-7.5102,-7.516,-7.5295,-7.5453,-7.5565,-7.5695,-7.5827,-7.5891,-7.604,-7.6144,-7.6301,-7.6404,-7.6607,-7.6763,-7.6929,-7.7024,-7.7082,-7.7097,-7.7118,-7.7087,-7.7037,-7.7063,-7.695,-7.7092,-7.7092,-7.7092,-7.7092,-7.7091,-7.5138,-7.5228,-7.5383,-7.5531,-7.5644,-7.5766,-7.5866,-7.5978,-7.6111,-7.6287,-7.6353,-7.6513,-7.6663,-7.6893,-7.6989,-7.7115,-7.7121,-7.7152,-7.716,-7.7165,-7.716,-7.7019,-7.7146,-7.7146,-7.7147,-7.7147,-7.7147,0,-7.5218,-7.5323,-7.5458,-7.5641,-7.5757,-7.5804,-7.5953,-7.6047,-7.6187,-7.6323,-7.6453,-7.6632,-7.6784,-7.6927,-7.7086,-7.716,-7.719,-7.7197,-7.7191,-7.7212,-7.7147,-7.7111,-7.7169,-7.7169,-7.7169,-7.7169,-7.7169,-7.7169,-7.5274,-7.5429,-7.5505,-7.5718,-7.5822,-7.598,-7.6061,-7.6174,-7.6283,-7.648,-7.6607,-7.67,-7.6839,-7.7009,-7.715,-7.7188,-7.7241,-7.7241,-7.7285,-7.7221,-7.7217,-7.7213,-7.718,-7.7252,-7.7252,-7.734,-7.7341,-7.7341]},{"header":{"parameterUnit":"m.s-1","parameterCategory":1,"la1":30.2991,"la2":30.254,"lo1":-89.0895,"lo2":-89.0444,"dy":0.0017,"dx":0.0017,"nx":28,"ny":28,"refTime":"2024-03-23T21:00:00:Z","depth":0,"parameterNumber":3,"parameterNumberName":"V-component_of_WINDS"},"data":[0,0,0,0,0,0,0,0,0,0,0,0,0,0,0,0,0,0,0,0,0,0,0,0,0,0,0,0,0,0,0,0,0,0,0,0,0,0,0,0,0,0,0,0,0,0,0,0,0,0,0,0,0,0,0,0,0,0,4.6577,4.6579,0,4.6776,4.6778,4.678,4.6861,4.6861,4.686,4.686,4.7065,4.7071,4.7077,0,0,0,0,0,0,0,0,0,0,0,0,0,4.627,4.6275,4.6576,4.6579,4.6581,4.6776,4.6778,4.6781,4.6861,4.6861,4.686,4.686,4.7064,4.7071,4.7078,0,0,0,0,0,0,0,0,0,0,0,0,0,4.6429,4.6276,4.6576,4.6645,4.6653,4.6775,4.6778,4.6782,4.6861,4.6861,4.686,4.6859,4.7061,4.707,4.7079,4.7147,0,0,4.7106,4.711,0,0,0,0,0,0,0,0,4.642,4.644,4.6632,4.664,4.665,4.6793,4.6746,4.6904,4.6862,4.6782,4.686,4.6859,4.6975,4.6991,4.703,4.7157,4.7166,4.7106,4.7112,4.7116,4.7118,0,0,0,0,0,0,0,4.6409,4.6432,4.6655,4.6635,4.6646,4.6667,4.6689,4.6776,4.688,4.6789,4.6795,4.6818,4.698,4.7022,4.7036,4.7169,4.7106,4.7114,4.712,4.7123,4.7365,4.7366,0,0,0,0,0,0,4.6386,4.6423,4.6649,4.6661,4.6531,4.6673,4.6698,4.6748,4.688,4.6899,4.6818,4.6821,4.7007,4.7025,4.7043,4.7135,4.7116,4.7124,4.7129,4.7364,4.7366,4.7367,0,0,0,0,0,0,4.6379,4.6405,4.6641,4.6544,4.6575,4.6679,4.6735,4.6752,4.6794,4.6902,4.6921,4.6841,4.7007,4.7031,4.7122,4.7143,4.7128,4.7136,4.7363,4.7365,4.7366,4.7316,0,0,0,0,0,0,4.637,4.6402,4.6429,4.6544,4.658,4.6715,4.6736,4.6756,4.6808,4.6814,4.6928,4.6947,4.7008,4.7108,4.713,4.7155,4.7143,4.7362,4.7364,4.7366,4.7316,4.7316,4.7315,0,0,0,0,0,4.6359,4.6406,4.6429,4.6456,4.6615,4.6716,4.6737,4.6806,4.681,4.6838,4.6908,4.6943,4.7137,4.7116,4.7142,4.717,4.7361,4.7363,4.7366,4.7316,4.7316,4.7315,0,0,0,0,0,0,4.6291,4.6423,4.645,4.6536,4.6614,4.6729,4.6766,4.6803,4.6882,4.6884,4.6967,4.6993,4.7077,4.7133,4.7108,4.7245,4.7252,4.7259,4.7205,4.7206,4.7205,4.719,4.715,0,0,0,0,0,4.6286,4.6356,4.6467,4.6533,4.657,4.6661,4.6708,4.6755,4.6839,4.6873,4.695,4.7031,4.7111,4.7161,4.724,4.7325,4.7352,4.7357,4.7356,4.7355,4.7361,4.7412,4.7416,4.7375,4.7375,4.7375,0,0,4.6277,4.6357,4.6396,4.6521,4.6587,4.6659,4.6689,4.6763,4.6818,4.6885,4.6975,4.7034,4.7131,4.7219,4.7262,4.7268,4.7379,4.7358,4.7357,4.7364,4.7415,4.7419,4.7422,4.7377,4.7376,4.7376,0,0,4.6297,4.6363,4.6426,4.6492,4.6592,4.6652,4.6667,4.6778,4.682,4.6912,4.6964,4.7031,4.7166,4.7233,4.7285,4.7333,4.7369,4.7356,4.7354,4.7403,4.7406,4.741,4.7428,4.7434,4.7362,4.7362,4.7362,0,4.6272,4.6381,4.6454,4.6526,4.658,4.6644,4.671,4.677,4.6891,4.6928,4.6933,4.7105,4.7175,4.7281,4.7293,4.7332,4.7353,4.7343,4.74,4.7404,4.7408,4.7427,4.7433,4.736,4.736,4.736,4.736,0,4.6348,4.6423,4.6462,4.6576,4.6635,4.6703,4.6788,4.6839,4.6882,4.6942,4.7037,4.7123,4.7221,4.725,4.7292,4.7363,4.7364,4.7383,4.7392,4.7409,4.7428,4.7435,4.7357,4.7357,4.7358,4.7358,0,0,4.633,4.6485,4.6498,4.6552,4.6667,4.6727,4.68,4.6896,4.6939,4.7021,4.7085,4.7198,4.7218,4.7276,4.7327,4.737,4.7404,4.7385,4.7388,4.7386,4.7491,4.7476,4.7483,4.7429,4.7431,4.7432,4.7483,0,4.6366,4.6496,4.6565,4.6667,4.6738,4.6801,4.6865,4.6943,4.7002,4.7073,4.7139,4.7219,4.7237,4.7274,4.7319,4.739,4.7427,4.7388,4.7491,4.7493,4.7465,4.7493,4.7477,4.752,4.7491,4.7492,4.7493,0,4.6425,4.6506,4.6614,4.6724,4.6757,4.6812,4.6907,4.6973,4.7065,4.7105,4.7171,4.7221,4.7302,4.7304,4.7417,4.7389,4.7436,4.7478,4.7481,4.7494,4.7494,4.7507,4.7536,4.7543,4.7505,4.7504,4.7503,0,4.6402,4.6538,4.6622,4.6666,4.6795,4.6833,4.6888,4.6979,4.7034,4.7117,4.7154,4.7245,4.7296,4.7366,4.7441,4.7435,4.7547,4.7555,4.7584,4.7582,4.7605,4.7603,4.7643,4.7633,4.7633,4.7633,4.7633,0,4.6436,4.65,4.6614,4.6665,4.674,4.6819,4.6892,4.6953,4.7033,4.7099,4.7159,4.722,4.7314,4.7387,4.7446,4.7532,4.7554,4.759,4.7605,4.7585,4.758,4.7617,4.7616,4.7635,4.7635,4.7634,4.7634,0,4.6423,4.6501,4.6597,4.6711,4.6742,4.6792,4.6892,4.6945,4.7007,4.709,4.7114,4.7213,4.7302,4.7383,4.7502,4.7542,4.7629,4.7648,4.7598,4.7606,4.7631,4.7628,4.7697,4.7711,4.769,4.769,4.769,0,4.644,4.6491,4.6611,4.6659,4.6714,4.679,4.6846,4.6927,4.6983,4.7092,4.7133,4.7226,4.7306,4.7446,4.7529,4.7621,4.7642,4.766,4.7657,4.7636,4.7645,4.7641,4.7647,4.7659,4.7659,4.7659,4.7659,0,4.6461,4.6498,4.6575,4.6667,4.6731,4.6808,4.6886,4.6922,4.7018,4.7078,4.717,4.7232,4.7353,4.7446,4.7548,4.7607,4.765,4.7659,4.7671,4.7652,4.7621,4.764,4.7597,4.7657,4.7658,4.7658,4.7658,4.7658,4.6465,4.6514,4.6607,4.6692,4.6759,4.6831,4.6887,4.6957,4.7035,4.714,4.7183,4.7277,4.737,4.7511,4.757,4.7646,4.7655,4.7671,4.7676,4.7679,4.7676,4.7609,4.7665,4.7665,4.7665,4.7665,4.7665,0,4.6491,4.6554,4.6631,4.6738,4.6806,4.6839,4.6928,4.6983,4.7064,4.7147,4.7224,4.7331,4.7422,4.7513,4.761,4.7653,4.7675,4.7676,4.7674,4.7687,4.7662,4.7643,4.7656,4.7656,4.7656,4.7656,4.7656,4.7656,4.6512,4.6598,4.6645,4.6766,4.6829,4.6921,4.6969,4.7037,4.7103,4.722,4.7295,4.7354,4.7441,4.7545,4.7631,4.7655,4.7689,4.7684,4.7714,4.7689,4.7689,4.7688,4.7671,4.769,4.769,4.7733,4.7734,4.7734]}]]